Location: �bnet
(46.9957°N, 8.4908°E)
Time: 14:48:16
(UTC+00:00)

Meteor 1-10 Rocket - Pass Details

Date: 11 May 2021
Orbit: 837 x 909 km, 81.3° (Epoch: 18 June)

Event Time Altitude Azimuth Distance (km) Brightness Sun altitude
Exits shadow 21:05:34 21° 187° (S) 1,807 5.5 -18.0°
Maximum altitude 21:09:25 87° 101° (E) 858 4.1 -18.3°
Drops below altitude 10° 21:15:07 10° 12° (NNE) 2,510 7.3 -18.9°
Sets 21:17:35 0° 12° (NNE) 3,462 8.1 -19.1°
